Miscellaneous Local Product
Issued by NWS Hastings, NE

Home | Current Version | Previous Version | Graphics & Text | Print | Product List | Glossary On
Versions: 1 2 3 4 5 6 7 8 9 10 11 12 13 14 15 16 17 18 19 20 21 22 23 24 25 26 27 28 29 30 31 32 33 34 35 36 37 38 39 40 41 42 43 44 45 46 47 48 49 50
313
AXUS43 KGID 282102
MISGRI

GID CWA HOURLY WEATHER ROUNDUP
NATIONAL WEATHER SERVICE HASTINGS NE
400 PM CDT TUE MAR 28 2017

NOTE: "FAIR" INDICATES FEW OR NO CLOUDS BELOW 12,000 FEET WITH NO
SIGNIFICANT WEATHER AND/OR OBSTRUCTIONS TO VISIBILITY.

...SOUTH CENTRAL NEBRASKA...

CITY           SKY/WX    TMP DP  RH WIND       PRES   REMARKS
GRAND ISLAND   CLOUDY    50  41  71 E14       30.03F
HASTINGS       CLOUDY    51  41  68 NE15      30.01F
KEARNEY        CLOUDY    52  37  58 E16       30.01F
ORD            CLOUDY    50  39  66 E12       30.03S
YORK           CLOUDY    48  41  76 E14       30.04F
AURORA         CLOUDY    48  42  78 E16       30.03F
LEXINGTON      CLOUDY    50  42  72 E14       29.99F
HOLDREGE       CLOUDY    51  40  67 E16       29.99S
HEBRON         CLOUDY    52  41  66 E16       29.99F

...NEBRASKA PANHANDLE...

CITY           SKY/WX    TMP DP  RH WIND       PRES   REMARKS
CHADRON        LGT RAIN  45  42  89 NE8       30.01S FOG
ALLIANCE       LGT RAIN  43  41  93 E18       29.95S FOG
SCOTTSBLUFF    RAIN      45  42  89 E9        29.95R FOG
SIDNEY         LGT RAIN  43  41  93 E18       29.92F FOG

...WESTERN AND NORTH CENTRAL NEBRASKA...

CITY           SKY/WX    TMP DP  RH WIND       PRES   REMARKS
VALENTINE      LGT RAIN  48  43  82 E9        30.05S
AINSWORTH      CLOUDY    49  41  73 E10       30.05S
ONEILL         CLOUDY    53  39  58 E8        30.06S
BROKEN BOW     CLOUDY    49  40  71 E12       30.01F
IMPERIAL       LGT RAIN  45  43  93 SE16      29.96R FOG
NORTH PLATTE   LGT RAIN  47  43  86 E10       30.00F FOG
MCCOOK         LGT RAIN  47  46  97 E10       29.99F FOG

...EASTERN NEBRASKA...

CITY           SKY/WX    TMP DP  RH WIND       PRES   REMARKS
NORFOLK        SUNNY     55  40  56 E13G21    30.04F
SO SIOUX CITY  SUNNY     63  37  38 E16       30.04F
TEKAMAH        CLOUDY    54  43  66 E8        30.06F
COLUMBUS       CLOUDY    48  41  76 E14G21    30.07S
ALBION         PTSUNNY   54  41  60 SE13      30.05S
OMAHA EPPLEY   CLOUDY    50  41  71 E12       30.07F
OFFUTT AFB     CLOUDY    49  42  75 E9        30.08R
MILLARD        CLOUDY    51  44  77 E9        30.08S
LINCOLN        CLOUDY    50  41  71 E9        30.07S
NEBRASKA CITY  CLOUDY    51  39  63 SE10      30.06S
BEATRICE       CLOUDY    52  42  67 E13G18    30.02F
FALLS CITY     CLOUDY    52  46  80 E10       30.04S

...NORTHERN KANSAS...

CITY           SKY/WX    TMP DP  RH WIND       PRES   REMARKS
GOODLAND       RAIN      44  43  96 SE17      29.93R FOG
HILL CITY      LGT RAIN  49  47  93 E7        29.96F FOG
NORTON         DRIZZLE   48  41  76 SE7       29.97F
PHILLIPSBURG   CLOUDY    54  41  62 E9        29.98F
HAYS             N/A     50  46  86 E7        29.98R
RUSSELL        CLOUDY    51  45  79 SE8       29.97R
CONCORDIA      PTSUNNY   54  43  66 E12       29.97F
SALINA         PTSUNNY   57  45  64 E12       29.94F
TOPEKA         CLOUDY    55  50  83 NE12      29.99F



USA.gov is the U.S. government's official web portal to all federal, state and local government web resources and services.